FW1232 Weather Reports


time (UTC)temp
C
wind
direction
speed
KPH
gust
KPH
rain 1hr
cm
rain 24hr
cm
rain mn
cm
humidity
%
barometer
mb
20260906040116 24 141 1.6 4.8 0.00 0.00 0.00 92 1012.7
20260906034614 24 138 1.6 4.8 0.00 0.00 0.00 92 1012.8
20260906033127 24 138 1.6 4.8 0.00 0.00 0.00 91 1012.7
20260906031616 24 138 1.6 4.8 0.00 0.00 0.00 92 1012.7
20260906030106 24 137 1.6 4.8 0.00 0.00 0.00 91 1012.6
20260906024607 24 136 3.2 6.4 0.00 0.00 0.00 90 1012.5
20260906023112 25 140 1.6 4.8 0.00 0.00 0.00 91 1012.3
20260906021607 24 0 0.0 0.0 0.00 0.00 0.00 92 1012.2
20260906020108 24 138 1.6 4.8 0.00 0.00 0.00 91 1012.0
20260906014604 25 138 1.6 12.9 0.00 0.00 0.00 90 1011.9
20260906013110 25 155 3.2 12.9 0.00 0.00 0.00 88 1012.0
20260906011607 25 140 4.8 11.3 0.00 0.00 0.00 85 1011.8
20260906004606 26 279 1.6 4.8 0.00 0.00 0.00 83 1011.6
20260906003101 26 286 1.6 4.8 0.00 0.00 0.00 82 1011.9
20260906001559 27 287 1.6 4.8 0.00 0.00 0.00 81 1011.8
20260906000108 27 0 1.6 4.8 0.00 0.00 0.00 80 1012.0
20260905234607 27 0 0.0 6.4 0.00 0.00 0.00 77 1012.2
20260905233103 27 202 3.2 6.4 0.00 0.00 0.00 74 1012.5
20260905231559 27 199 4.8 22.5 0.00 0.00 0.00 74 1012.1
20260905230103 27 355 22.5 41.8 0.00 0.00 0.00 72 1012.0
20260905224608 30 355 32.2 46.7 0.00 0.00 0.00 69 1012.3
20260905223100 35 0 0.0 4.8 0.00 0.00 0.00 58 1011.6
20260905221604 34 0 1.6 4.8 0.00 0.00 0.00 61 1011.4
20260905220105 33 212 3.2 8.0 0.00 0.00 0.00 61 1011.5
20260905214600 34 264 3.2 6.4 0.00 0.00 0.00 64 1011.2
20260905213102 33 269 4.8 11.3 0.00 0.00 0.00 65 1011.4
20260905211611 34 223 4.8 12.9 0.00 0.00 0.00 61 1011.4
20260905210107 35 250 4.8 9.7 0.00 0.00 0.00 59 1011.5
20260905204611 35 254 3.2 6.4 0.00 0.00 0.00 58 1011.7
20260905203126 35 221 3.2 9.7 0.00 0.00 0.00 59 1011.8
20260905201609 35 238 1.6 6.4 0.00 0.00 0.00 61 1011.9
20260905200119 35 256 1.6 6.4 0.00 0.00 0.00 58 1012.4
20260905194605 35 261 3.2 9.7 0.00 0.00 0.00 60 1012.6
20260905193103 34 236 3.2 9.7 0.00 0.00 0.00 64 1012.8
20260905191605 33 261 3.2 9.7 0.00 0.00 0.00 66 1013.0
20260905190101 32 268 3.2 8.0 0.00 0.00 0.00 65 1013.2
20260905184606 31 36 6.4 14.5 0.00 0.00 0.00 70 1013.4
20260905183104 31 56 1.6 17.7 0.00 0.00 0.00 68 1013.6
20260905181602 31 57 4.8 11.3 0.00 0.00 0.00 68 1013.8
20260905180105 31 5 1.6 6.4 0.00 0.00 0.00 71 1013.9
20260905174607 30 13 4.8 14.5 0.00 0.00 0.00 73 1014.3
20260905173105 30 39 9.7 20.9 0.00 0.00 0.00 75 1014.4
20260905171601 29 29 12.9 19.3 0.00 0.00 0.00 76 1014.7
20260905170118 29 39 9.7 22.5 0.00 0.00 0.00 77 1014.7
20260905164605 29 105 3.2 16.1 0.00 0.00 0.00 79 1014.8
20260905163104 28 42 6.4 19.3 0.00 0.00 0.00 80 1015.0
20260905161617 28 35 8.0 17.7 0.00 0.00 0.00 80 1015.2
20260905160104 28 31 16.1 22.5 0.00 0.00 0.00 80 1015.4
20260905154626 28 34 16.1 25.7 0.00 0.00 0.00 81 1015.1
20260905153108 27 30 16.1 25.7 0.00 0.00 0.00 83 1015.2
20260905151632 27 33 16.1 24.1 0.00 0.00 0.00 82 1015.5
20260905150107 27 34 16.1 29.0 0.00 0.00 0.00 85 1015.7
20260905144611 27 24 22.5 30.6 0.00 0.00 0.00 84 1015.7
20260905143102 28 338 3.2 6.4 0.00 0.00 0.00 85 1015.6
20260905141606 29 0 0.0 3.2 0.00 0.00 0.00 84 1015.0
20260905140109 28 0 0.0 4.8 0.00 0.00 0.00 87 1015.0
20260905134603 27 118 1.6 4.8 0.00 0.00 0.00 88 1015.0
20260905133105 26 117 0.0 6.4 0.00 0.00 0.00 90 1014.9
20260905131608 26 115 1.6 6.4 0.00 0.00 0.00 91 1015.2
20260905130104 25 114 3.2 9.7 0.00 0.00 0.00 92 1015.2
20260905124603 25 110 4.8 6.4 0.00 0.00 0.00 93 1015.3
20260905123106 25 74 1.6 4.8 0.00 0.00 0.00 94 1015.1
20260905121602 25 72 1.6 4.8 0.00 0.00 0.00 94 1015.0
20260905120100 24 70 1.6 3.2 0.00 0.00 0.00 97 1014.8
20260905114600 24 69 1.6 4.8 0.00 0.00 0.00 98 1014.7
20260905113105 24 0 0.0 4.8 0.00 0.00 0.00 98 1014.6
20260905111600 24 67 0.0 4.8 0.00 0.00 0.00 98 1014.6
20260905110111 24 67 1.6 4.8 0.00 0.00 0.00 98 1014.5
20260905104559 24 66 3.2 6.4 0.00 0.00 0.00 97 1014.3
20260905103102 24 49 1.6 4.8 0.00 0.00 0.00 97 1014.3
20260905101610 24 47 3.2 8.0 0.00 0.00 0.00 97 1014.2
20260905100101 24 0 0.0 3.2 0.00 0.00 0.00 94 1014.0
20260905094600 24 130 1.6 6.4 0.00 0.00 0.00 93 1013.9
20260905093126 24 130 1.6 4.8 0.00 0.00 0.00 94 1013.8
20260905091607 24 132 0.0 4.8 0.00 0.00 0.00 95 1013.6
20260905090103 24 132 1.6 4.8 0.00 0.00 0.00 94 1013.7
20260905084602 24 132 3.2 4.8 0.00 0.00 0.00 93 1013.7
20260905083111 24 132 3.2 6.4 0.00 0.00 0.00 94 1013.6
20260905081559 25 132 3.2 4.8 0.00 0.00 0.00 94 1013.5
20260905080106 25 132 1.6 3.2 0.00 0.00 0.00 95 1013.8
20260905074600 25 132 0.0 3.2 0.00 0.00 0.00 94 1014.0
20260905073102 25 133 1.6 4.8 0.00 0.00 0.00 93 1014.2
20260905071601 25 133 1.6 3.2 0.00 0.00 0.00 93 1014.3
20260905070117 25 133 3.2 4.8 0.00 0.00 0.00 95 1014.4
20260905064600 25 134 1.6 4.8 0.00 0.00 0.00 94 1014.5
20260905063102 25 0 0.0 3.2 0.00 0.00 0.00 94 1014.8
20260905061608 26 133 1.6 6.4 0.00 0.00 0.00 94 1014.8
20260905060100 26 0 0.0 0.0 0.00 0.00 0.00 93 1014.9
20260905054558 26 0 0.0 3.2 0.00 0.00 0.00 92 1015.0
20260905053103 26 144 1.6 4.8 0.00 0.00 0.00 93 1015.2
20260905051609 26 145 1.6 4.8 0.00 0.00 0.00 92 1015.0
20260905050107 26 145 0.0 3.2 0.00 0.00 0.00 92 1015.1
20260905044616 27 145 1.6 4.8 0.00 0.00 0.00 91 1015.1
20260905043101 27 149 1.6 4.8 0.00 0.00 0.00 90 1015.0
20260905041600 27 0 0.0 3.2 0.00 0.00 0.00 89 1015.0